Wind_Speed
25 24 24 24 24 25 24 24 24 24 23 23 23 23 23 23 23 23 24 24 25 24 25 25 25 26 27 27 27 27 28 28 29 30 31 30 30 30 30 30 31 31 32
26 25 24 24 24 25 25 25 24 24 24 24 24 24 24 25 25 25 24 25 24 25 25 26 26 26 27 28 28 28 28 29 30 31 31 32 32 32 32 32 32 32 32
27 26 25 25 26 25 25 26 26 24 24 25 25 25 25 26 26 25 25 25 25 25 25 25 26 26 26 27 28 28 29 29 30 31 32 33 33 33 34 34 33 33 34
27 27 27 26 26 26 26 26 26 25 25 25 25 25 26 26 26 25 25 25 25 26 26 27 27 27 27 29 29 28 29 29 30 31 32 33 34 35 35 35 35 35 34
29 29 28 28 28 28 27 26 26 26 26 26 26 26 26 26 26 26 25 25 26 27 27 27 27 27 28 28 29 29 30 31 31 31 32 33 34 35 36 37 37 37 36
29 29 29 29 29 29 28 28 27 26 26 27 27 26 26 27 27 26 26 25 26 26 27 27 27 28 28 28 29 30 30 31 32 32 32 34 35 36 36 38 38 38 37
30 30 31 29 29 29 28 28 27 26 26 27 26 26 27 27 28 27 27 26 27 27 27 28 28 29 29 29 30 30 30 31 33 34 34 34 35 37 38 39 39 39 39
31 31 31 30 28 28 29 28 26 26 27 27 27 27 27 28 27 27 27 28 28 28 28 28 29 29 29 30 30 31 31 32 33 34 35 36 36 37 39 39 39 40 39
29 29 29 28 26 26 26 26 26 27 27 27 27 27 28 28 28 27 28 28 28 29 29 29 29 29 29 30 31 31 32 33 33 34 36 36 37 38 39 40 39 39 39
27 27 26 25 24 24 24 24 25 25 26 26 27 27 27 28 28 28 29 29 29 29 29 29 30 30 30 31 32 33 33 34 34 35 36 38 38 39 40 40 40 40 40
27 25 25 25 24 23 23 23 24 24 24 25 26 26 27 27 28 28 29 29 29 29 29 30 31 31 31 32 33 34 34 35 35 36 37 38 39 39 40 41 41 40 40
24 24 23 23 22 21 22 22 23 23 23 23 24 24 25 26 28 28 28 29 30 30 30 30 30 31 32 32 32 33 34 35 35 36 36 37 38 39 40 41 41 42 42
22 21 22 22 21 20 21 21 21 22 22 23 23 23 24 26 27 28 29 30 30 30 29 29 30 31 32 32 32 32 33 34 35 35 35 36 37 38 39 40 40 41 42
21 21 20 20 19 19 20 21 21 21 21 21 22 23 23 25 26 27 28 29 29 29 29 29 30 31 32 32 32 32 32 33 34 35 35 35 36 37 38 39 40 41 42
19 19 18 17 18 18 18 19 20 20 21 21 22 22 23 24 25 26 28 28 29 28 28 28 29 30 31 32 32 32 32 33 33 34 34 35 36 37 37 39 40 41 41
18 17 16 17 17 17 17 18 19 19 20 20 22 22 22 23 24 26 27 27 27 27 27 28 29 29 30 31 31 32 33 33 33 33 33 34 35 36 37 38 39 40 41
17 16 15 17 17 16 17 17 18 18 18 19 20 21 22 23 23 23 24 24 25 25 25 25 26 27 28 28 29 29 30 31 32 33 33 34 34 36 37 38 38 39 40
15 15 15 16 16 16 16 17 17 17 17 18 19 20 21 21 22 22 21 22 22 22 23 23 25 26 27 27 27 28 29 29 31 32 33 33 34 35 37 38 39 40 41
14 15 15 15 15 15 15 16 16 17 16 17 19 20 20 20 20 20 20 21 21 22 23 24 25 26 26 26 26 26 27 27 28 30 31 32 34 35 35 37 39 41 42
14 14 14 15 15 15 14 15 15 15 16 18 19 19 19 19 19 20 20 20 21 22 23 23 24 24 24 25 25 24 25 25 26 27 29 30 32 34 34 35 37 38 41
13 14 14 14 14 14 15 15 15 15 16 17 18 17 18 18 19 19 19 20 21 22 23 23 23 23 23 24 24 24 24 24 25 27 28 29 30 31 33 34 34 36 37
14 14 14 13 14 15 15 15 14 15 16 17 17 17 18 18 18 18 19 20 21 22 22 23 23 23 23 23 23 23 23 23 23 24 26 26 27 29 30 32 34 35 36
14 14 13 13 14 15 15 14 14 14 15 15 15 16 17 18 18 19 19 20 21 21 22 23 22 23 23 23 23 23 23 23 23 23 24 25 26 27 29 31 32 34 35
14 13 13 13 14 14 14 14 14 14 15 15 16 17 18 18 19 19 19 20 20 22 23 23 23 23 23 23 23 23 23 22 22 22 23 24 25 26 27 28 30 32 33
14 13 13 13 14 14 15 14 14 14 15 16 16 17 18 18 19 19 19 20 21 21 22 23 23 23 23 22 22 22 22 22 23 23 23 24 25 26 26 27 28 29 31
14 13 13 14 14 15 15 15 15 15 16 15 16 17 18 18 19 19 19 20 21 21 22 23 23 23 22 21 21 21 22 22 23 23 23 23 24 25 25 26 26 27 28
Wind_Direction
287 287 288 286 286 286 283 284 282 278 276 277 278 278 278 277 278 278 277 275 275 273 273 272 270 268 262 261 258 256 255 254 252 249 248 247 245 244 242 241 240 239 238
286 287 288 286 286 286 285 286 283 279 277 277 277 277 276 276 276 276 276 277 276 274 274 273 270 269 265 262 258 256 255 253 251 250 248 246 246 245 243 241 241 241 239
285 286 286 286 286 285 285 285 285 283 280 278 277 278 276 276 277 276 275 277 277 276 274 274 273 270 266 262 260 257 256 254 252 250 249 247 246 245 244 242 241 241 239
286 286 286 286 284 283 282 283 285 282 281 277 277 278 278 278 277 277 277 277 278 276 275 274 274 272 269 263 260 259 256 255 254 253 251 249 247 245 244 243 242 241 239
285 286 286 285 283 282 281 283 283 282 280 278 278 278 279 279 279 277 277 277 278 277 277 276 274 273 270 266 262 260 258 256 255 255 252 249 248 247 245 244 243 242 241
285 285 285 284 282 281 282 282 281 281 281 279 279 279 279 279 279 278 277 278 279 279 277 276 275 274 271 267 263 261 260 258 256 256 254 252 249 247 246 244 243 242 242
286 286 286 283 281 281 282 281 281 279 278 278 278 278 279 279 279 278 277 278 279 278 278 276 276 274 272 267 264 263 262 260 259 257 256 254 251 248 247 245 243 242 243
286 285 284 283 281 282 283 280 279 277 275 276 277 276 276 277 278 278 279 280 279 279 278 277 275 275 274 270 267 264 263 261 260 258 256 254 252 248 247 246 245 243 242
285 284 284 282 281 282 282 279 277 277 276 276 276 277 276 275 276 277 279 279 279 278 278 277 275 274 274 272 268 266 264 261 260 259 257 255 252 249 247 246 246 244 243
285 286 285 283 283 282 281 278 276 277 277 276 276 277 277 276 276 277 278 278 278 278 277 276 275 273 272 270 269 267 265 263 262 260 259 257 254 251 247 246 245 244 243
285 284 284 284 284 283 281 281 280 278 277 277 278 278 277 277 277 279 279 279 278 278 278 276 275 275 273 271 270 269 267 264 263 261 259 257 255 252 249 246 245 244 243
284 285 286 287 285 284 282 282 281 280 280 279 281 280 280 279 280 281 280 280 280 280 279 277 276 276 274 272 270 269 267 264 263 262 259 256 254 253 251 248 245 244 243
286 285 285 287 287 284 282 283 284 283 284 284 284 284 283 282 281 282 282 281 281 280 279 278 278 277 276 274 272 269 267 264 262 260 258 255 253 252 251 249 246 244 244
289 287 285 285 284 283 283 286 287 285 284 288 289 287 287 287 285 285 284 283 283 282 281 281 281 279 276 276 274 271 268 265 262 259 257 255 253 251 250 248 247 245 244
292 290 289 288 286 286 287 288 291 290 289 288 290 287 288 289 288 287 286 284 284 284 284 284 282 280 278 277 275 271 269 266 263 260 258 255 253 251 250 248 247 246 243
297 295 290 289 289 290 292 293 295 293 292 290 290 289 289 290 289 288 286 286 287 287 286 284 282 281 281 279 276 272 269 265 263 261 258 256 255 253 252 249 248 246 244
300 295 296 297 294 295 293 292 293 292 292 292 291 292 292 293 291 293 292 290 290 290 289 287 285 284 284 281 279 277 273 266 262 260 258 258 256 254 252 251 249 247 246
303 302 305 305 300 299 298 298 296 293 292 293 294 296 296 296 295 296 296 297 296 294 293 292 290 287 285 284 282 280 276 271 266 263 260 259 257 256 254 252 251 249 248
308 310 309 309 304 301 301 303 299 296 294 297 298 299 299 299 300 299 301 301 298 297 297 296 294 292 290 288 286 284 279 273 270 266 263 262 259 258 257 255 252 250 249
317 312 311 309 308 303 304 304 303 301 300 301 302 304 303 302 303 303 303 304 303 301 301 301 299 297 294 293 291 288 281 275 271 269 268 265 261 259 257 256 255 252 251
320 317 315 312 311 311 311 311 310 310 308 307 309 309 308 310 310 309 309 310 309 307 305 305 303 299 297 295 293 289 283 278 272 270 269 266 264 261 258 257 255 254 253
326 322 319 320 320 320 318 316 314 315 315 313 312 314 315 316 315 314 315 314 314 313 311 308 304 303 302 299 296 293 287 282 278 274 270 267 266 263 260 258 256 255 253
333 330 331 330 330 327 325 321 320 317 317 319 318 318 317 317 319 320 318 317 317 316 315 312 309 307 304 301 298 294 289 285 282 277 273 270 267 264 261 258 256 255 254
339 338 337 336 333 333 331 327 324 323 322 323 323 324 322 322 323 322 321 321 319 318 316 314 312 310 307 303 300 296 292 286 282 279 277 273 269 268 264 261 257 256 255
350 346 341 339 339 340 335 331 330 329 326 327 329 329 327 327 327 325 324 323 323 322 320 319 316 313 310 307 303 300 296 290 284 281 278 276 273 270 268 266 264 261 258
352 349 347 347 347 347 342 338 335 334 332 332 332 330 329 328 328 328 328 327 327 328 326 324 320 316 313 308 305 301 298 292 287 284 280 278 276 273 269 268 268 266 263
Height
5834 5832 5830 5828 5827 5826 5825 5823 5822 5822 5821 5820 5819 5818 5818 5817 5816 5815 5815 5814 5814 5813 5813 5812 5812 5812 5812 5812 5812 5813 5814 5815 5816 5817 5819 5821 5822 5824 5826 5828 5831 5833 5835
5828 5827 5825 5823 5822 5820 5819 5818 5816 5815 5815 5814 5813 5812 5812 5811 5810 5809 5809 5808 5808 5807 5807 5806 5806 5805 5805 5805 5805 5806 5806 5808 5809 5810 5812 5814 5816 5818 5820 5822 5824 5827 5829
5822 5820 5819 5817 5816 5814 5813 5812 5811 5810 5809 5808 5807 5806 5805 5805 5804 5803 5802 5802 5801 5801 5800 5800 5799 5798 5798 5798 5798 5798 5799 5800 5801 5803 5804 5806 5808 5810 5812 5814 5817 5820 5822
5815 5814 5813 5812 5810 5809 5807 5806 5805 5804 5802 5801 5800 5800 5799 5798 5797 5796 5795 5795 5794 5794 5793 5793 5792 5792 5791 5791 5791 5791 5792 5793 5794 5795 5796 5798 5800 5802 5804 5807 5809 5812 5815
5809 5808 5806 5805 5803 5802 5801 5800 5799 5797 5796 5795 5794 5793 5792 5791 5790 5790 5789 5788 5788 5787 5786 5786 5785 5785 5784 5783 5784 5784 5785 5785 5786 5787 5788 5790 5792 5794 5796 5799 5801 5804 5807
5802 5800 5799 5797 5796 5795 5794 5793 5791 5790 5789 5788 5787 5786 5785 5784 5783 5783 5782 5782 5781 5780 5779 5779 5778 5777 5777 5776 5776 5776 5777 5777 5778 5779 5780 5781 5783 5785 5787 5790 5792 5796 5798
5795 5793 5791 5789 5788 5787 5786 5785 5784 5783 5782 5781 5780 5778 5777 5777 5776 5775 5775 5774 5774 5773 5772 5771 5770 5769 5769 5768 5768 5769 5769 5769 5770 5770 5771 5773 5774 5777 5779 5781 5784 5787 5790
5788 5786 5784 5782 5780 5779 5778 5777 5776 5775 5775 5774 5773 5771 5771 5770 5769 5768 5768 5767 5766 5766 5764 5763 5762 5761 5761 5760 5760 5760 5760 5761 5761 5761 5762 5763 5765 5767 5770 5772 5774 5777 5780
5780 5778 5776 5774 5772 5771 5770 5769 5769 5767 5768 5767 5766 5765 5764 5763 5762 5761 5760 5759 5759 5757 5756 5755 5754 5753 5752 5752 5752 5752 5751 5751 5752 5752 5753 5754 5755 5758 5760 5763 5765 5768 5771
5772 5770 5768 5767 5766 5764 5763 5762 5761 5760 5760 5759 5758 5757 5757 5756 5755 5754 5753 5752 5751 5749 5748 5747 5746 5745 5744 5743 5742 5742 5742 5742 5742 5742 5743 5744 5745 5747 5750 5752 5755 5758 5761
5765 5763 5762 5760 5759 5757 5756 5755 5754 5753 5752 5752 5751 5750 5749 5748 5747 5746 5745 5744 5742 5741 5739 5738 5736 5736 5735 5733 5733 5732 5732 5732 5732 5732 5733 5733 5735 5737 5739 5742 5745 5748 5751
5757 5756 5755 5753 5752 5750 5750 5749 5747 5746 5745 5744 5743 5742 5741 5740 5739 5738 5737 5735 5733 5732 5730 5728 5727 5726 5725 5724 5723 5722 5722 5721 5721 5722 5722 5723 5724 5726 5729 5731 5735 5737 5741
5751 5750 5748 5747 5745 5744 5743 5742 5741 5740 5739 5737 5736 5734 5733 5731 5730 5729 5728 5726 5724 5722 5721 5719 5718 5716 5715 5714 5713 5712 5711 5711 5711 5711 5712 5713 5714 5716 5718 5721 5724 5727 5730
5745 5744 5742 5741 5739 5738 5737 5736 5734 5733 5732 5730 5729 5727 5725 5723 5722 5720 5719 5717 5715 5713 5712 5710 5708 5706 5705 5704 5702 5701 5701 5700 5700 5701 5702 5703 5704 5706 5708 5711 5713 5716 5720
5739 5738 5736 5735 5733 5732 5731 5730 5728 5727 5725 5724 5722 5720 5718 5716 5714 5712 5710 5708 5706 5704 5703 5701 5699 5697 5695 5694 5692 5691 5690 5690 5690 5691 5691 5692 5694 5696 5698 5700 5703 5706 5709
5734 5733 5731 5730 5728 5727 5725 5724 5723 5721 5719 5717 5716 5714 5711 5709 5707 5704 5702 5699 5697 5695 5694 5692 5690 5688 5685 5684 5682 5681 5680 5680 5680 5681 5681 5682 5684 5685 5688 5690 5692 5696 5698
5729 5728 5726 5725 5723 5722 5720 5719 5717 5715 5713 5711 5709 5707 5705 5702 5700 5697 5694 5692 5689 5687 5685 5684 5681 5679 5677 5675 5673 5671 5670 5670 5670 5671 5671 5672 5674 5675 5677 5679 5681 5684 5687
5725 5724 5722 5720 5719 5717 5716 5714 5711 5709 5708 5705 5703 5701 5698 5695 5693 5690 5688 5685 5682 5680 5678 5676 5673 5671 5669 5666 5665 5663 5661 5660 5660 5661 5661 5662 5664 5665 5666 5668 5671 5673 5676
5722 5720 5718 5716 5715 5713 5711 5708 5706 5704 5702 5700 5698 5695 5692 5690 5687 5685 5682 5679 5676 5673 5671 5668 5666 5663 5661 5658 5656 5655 5653 5652 5651 5651 5652 5652 5653 5655 5656 5658 5660 5662 5665
5719 5717 5715 5713 5711 5708 5706 5704 5701 5699 5697 5695 5692 5690 5687 5684 5682 5679 5676 5673 5670 5667 5665 5662 5659 5656 5653 5651 5648 5647 5645 5643 5643 5642 5642 5643 5643 5644 5646 5647 5649 5651 5653
5716 5714 5711 5709 5707 5704 5702 5699 5697 5695 5692 5690 5687 5685 5682 5679 5676 5673 5670 5667 5664 5661 5659 5656 5653 5649 5647 5644 5642 5639 5637 5636 5635 5634 5634 5634 5634 5635 5635 5636 5638 5640 5642
5714 5711 5709 5706 5703 5701 5698 5695 5693 5690 5688 5685 5683 5680 5677 5674 5671 5668 5665 5662 5659 5656 5652 5649 5646 5643 5641 5638 5635 5632 5631 5629 5628 5627 5626 5625 5625 5625 5625 5627 5628 5630 5631
5712 5709 5706 5703 5701 5698 5695 5692 5689 5687 5684 5682 5679 5676 5673 5670 5667 5663 5660 5657 5654 5650 5647 5643 5640 5637 5634 5631 5629 5626 5624 5622 5620 5619 5618 5617 5616 5616 5617 5617 5618 5619 5621
5710 5707 5704 5701 5698 5695 5692 5689 5686 5684 5681 5678 5675 5672 5669 5665 5662 5659 5655 5652 5649 5645 5641 5638 5635 5631 5627 5624 5621 5619 5617 5614 5613 5611 5610 5609 5609 5608 5608 5608 5608 5609 5610
5708 5705 5702 5700 5697 5693 5690 5687 5684 5681 5678 5675 5672 5668 5665 5662 5658 5655 5651 5648 5644 5640 5636 5632 5628 5624 5621 5617 5614 5612 5609 5607 5606 5604 5603 5602 5601 5600 5600 5599 5599 5600 5600
5707 5704 5701 5698 5695 5692 5688 5685 5682 5678 5675 5672 5669 5665 5662 5658 5655 5651 5647 5643 5639 5635 5631 5627 5623 5618 5614 5611 5608 5605 5602 5600 5598 5597 5595 5594 5593 5592 5592 5591 5591 5590 5591